Wind_Speed
11 11 10 10 9 9 9 10 10 11 12 14 15 16 17 18 18 18 17 17 17 17 17 17 17 17 18 18 18 18 18 18 18 18 18 18 18 18 18 18 18 18 18 19 19 19 19 19 18 18 18 18
13 12 12 12 11 11 10 10 10 11 11 12 13 14 16 17 19 19 19 19 19 19 19 19 19 19 19 19 19 19 19 19 19 19 19 19 19 19 19 19 19 19 19 19 19 20 20 20 19 19 19 19
15 15 14 14 13 13 13 12 12 12 12 12 12 13 14 15 17 18 20 21 21 21 21 21 21 21 21 21 21 21 21 20 20 20 20 20 20 20 20 19 19 20 20 20 20 20 20 20 21 21 20 20
17 17 16 16 16 15 15 15 14 14 13 13 13 13 13 14 15 16 17 19 20 21 22 23 23 23 23 24 24 24 23 23 23 23 23 23 22 22 22 21 21 21 21 21 21 21 21 21 22 22 22 22
18 18 18 18 18 18 17 17 17 16 16 15 15 14 14 14 15 15 16 16 18 19 20 21 23 24 25 25 26 26 26 26 25 26 26 26 25 25 25 24 24 24 24 23 23 23 23 23 23 23 23 23
20 20 20 20 20 20 20 19 19 19 19 18 18 17 16 15 15 16 16 16 17 18 18 19 21 22 23 25 26 26 27 27 27 27 28 28 28 27 27 27 27 26 26 26 25 25 25 25 25 25 25 25
20 21 21 21 21 21 21 21 21 21 21 21 21 20 19 18 18 18 18 18 18 18 19 19 20 21 21 23 24 25 25 26 26 27 28 28 28 28 28 28 28 28 28 28 28 28 27 27 27 27 27 27
21 21 21 22 22 22 22 22 22 23 23 23 23 23 23 22 21 21 20 20 20 20 21 21 21 21 22 22 23 24 25 25 25 26 27 27 27 27 28 28 28 28 29 29 29 29 29 29 29 29 29 29
21 21 21 22 22 22 22 22 23 23 24 24 25 25 25 24 24 24 24 23 23 23 24 23 23 23 23 24 24 25 25 25 25 26 26 26 26 27 27 27 27 28 28 28 28 29 29 30 30 30 30 31
20 21 21 22 23 23 23 23 23 23 24 25 26 26 26 26 26 26 26 26 26 27 27 27 27 26 26 26 26 26 26 26 26 27 27 27 27 27 27 27 27 27 28 28 28 29 29 29 30 31 31 31
20 21 21 22 23 23 24 24 24 24 25 26 26 27 27 27 27 28 28 28 29 29 30 30 30 30 29 29 29 29 29 28 29 29 29 28 28 29 28 28 28 28 28 28 29 29 30 30 30 31 31 31
22 22 22 22 23 23 24 25 25 26 26 26 26 27 27 28 28 28 28 29 30 31 31 32 32 33 32 32 32 33 32 32 32 32 32 31 30 31 30 30 30 29 29 29 29 30 30 30 31 31 31 31
23 23 23 24 24 25 25 25 26 27 27 27 27 27 28 28 28 28 29 29 30 31 32 33 34 34 35 35 35 35 35 35 35 34 34 34 33 34 33 33 32 31 31 31 31 31 31 31 31 31 32 32
25 25 25 26 26 27 27 27 28 28 28 29 29 29 29 29 29 29 29 30 31 32 32 33 34 35 36 37 36 37 37 37 37 37 36 36 36 36 36 36 35 34 34 34 33 33 33 32 32 32 32 32
27 27 28 28 28 28 29 29 29 29 29 30 30 31 31 31 31 30 30 31 31 32 33 33 34 35 36 36 37 38 38 39 38 38 38 38 37 37 37 37 36 36 36 36 36 36 35 35 34 34 33 33
30 30 30 30 30 30 31 31 31 31 31 31 32 33 33 33 33 32 32 32 32 33 33 34 34 35 35 36 37 38 38 39 39 39 39 39 38 37 37 38 37 37 37 37 38 37 37 38 37 37 36 35
32 32 32 32 32 32 33 33 32 33 33 33 33 34 34 34 35 34 34 33 34 34 35 34 34 35 35 36 37 37 38 38 38 39 39 39 38 37 37 38 37 37 37 37 38 37 37 38 39 39 39 38
34 34 34 34 34 34 34 34 34 34 34 34 34 34 34 35 35 36 36 35 36 36 36 36 36 36 36 36 36 37 37 38 38 39 39 39 39 38 37 38 38 37 37 37 37 37 36 37 38 39 40 40
34 34 34 35 35 35 35 36 36 36 36 36 36 36 35 35 35 36 36 37 37 38 38 39 38 38 38 39 38 37 38 39 39 39 40 40 40 39 38 38 39 38 38 37 37 37 36 36 36 37 39 39
33 34 35 35 35 35 36 36 37 38 38 38 38 37 37 36 36 37 37 37 38 39 40 40 41 41 41 41 40 39 39 39 40 41 41 41 41 40 39 39 39 40 40 39 39 38 37 36 36 36 37 38
33 33 34 34 34 35 35 36 37 38 39 39 39 39 39 38 38 38 38 39 39 40 41 41 42 43 44 44 43 42 41 41 42 42 43 42 42 42 41 40 40 40 41 41 40 39 38 37 36 36 37 37
33 33 33 34 34 34 35 36 37 38 39 40 40 40 40 40 40 40 40 40 40 40 41 42 43 44 46 46 46 45 45 44 44 44 44 44 44 44 44 43 41 41 41 41 41 40 39 38 37 37 37 38
35 34 34 34 34 35 35 36 36 37 39 40 40 41 41 40 40 40 40 40 40 40 41 41 42 44 45 47 48 48 47 46 46 46 47 47 47 47 46 45 44 43 42 42 41 41 40 39 38 38 39 39
36 36 36 36 35 35 35 36 36 37 38 39 40 40 41 40 40 40 40 40 40 40 41 42 43 43 44 46 48 49 50 49 49 49 49 49 49 49 48 48 47 46 45 44 43 42 40 40 40 41 40 40
37 38 38 38 37 36 36 37 37 38 38 39 40 41 41 41 41 41 41 41 41 41 42 42 43 44 44 45 46 48 49 51 51 51 51 51 51 51 51 50 50 50 49 48 45 44 43 44 44 43 41 40
38 39 40 40 39 39 39 39 39 40 40 40 41 41 42 42 42 42 42 42 42 42 42 42 42 43 44 44 45 46 47 49 50 51 52 53 53 54 54 53 53 53 52 51 49 47 47 47 46 44 43 42
38 39 41 41 42 42 42 41 41 41 41 42 42 42 42 42 43 43 43 43 43 43 43 43 43 42 43 44 44 45 46 47 48 50 51 52 53 54 55 55 55 55 55 54 53 52 51 49 48 47 46 44
39 40 41 42 43 44 43 43 43 42 42 42 42 42 42 42 43 43 44 44 44 44 44 44 43 43 43 44 44 45 46 46 47 48 49 50 51 53 54 54 55 55 56 56 55 55 54 53 52 50 48 47
41 42 43 44 44 43 43 43 44 44 43 43 43 43 43 43 43 43 43 44 45 45 45 45 45 45 45 45 45 46 46 47 47 48 49 50 51 52 53 53 54 55 56 56 56 56 57 56 55 53 52 51
43 44 45 46 45 44 44 44 45 45 46 46 45 45 45 46 46 46 46 45 46 46 47 47 47 47 47 47 47 48 48 48 49 49 50 50 51 51 52 53 54 54 55 55 56 56 57 57 57 57 56 55
45 46 47 47 47 46 46 46 46 47 48 48 49 50 50 51 51 51 50 50 50 50 50 50 51 50 51 50 50 50 51 51 51 51 51 52 52 52 53 54 54 54 55 56 56 56 57 57 58 58 58 58
Wind_Direction
292 294 296 298 298 297 294 291 288 283 278 274 270 267 265 263 262 261 261 260 260 262 263 263 263 264 263 263 262 262 262 262 261 261 260 260 260 260 260 261 261 261 262 263 263 263 263 263 262 262 261 259
282 282 284 286 289 290 291 291 290 288 285 281 277 273 269 266 264 262 261 261 260 260 261 261 261 262 262 262 262 262 261 261 262 262 261 261 261 261 262 262 262 262 263 263 264 264 264 263 263 264 263 262
278 277 277 279 280 281 282 283 285 285 284 283 281 278 274 270 267 265 263 262 261 260 260 260 260 260 260 260 260 260 260 260 261 261 261 261 261 261 261 262 262 262 262 262 262 263 263 263 263 264 264 263
277 276 276 275 274 274 275 276 277 278 279 280 279 278 276 274 272 270 268 267 265 263 261 261 261 260 259 260 260 260 260 260 260 261 261 262 262 262 262 262 262 262 262 262 262 262 262 263 263 263 264 264
274 273 273 273 272 272 271 271 271 271 272 273 273 273 274 274 274 273 272 270 269 267 264 262 261 260 260 260 260 260 260 261 261 262 262 262 263 263 263 263 263 263 262 262 262 262 262 263 263 263 263 263
273 271 271 271 271 272 271 269 268 267 267 267 267 267 268 269 271 272 272 270 269 268 266 263 262 262 261 261 260 260 260 260 261 261 262 262 263 263 264 264 264 264 264 263 263 263 263 262 262 262 263 263
275 272 270 270 270 270 270 269 267 265 264 264 264 263 263 264 266 267 268 269 269 268 267 265 263 263 262 262 262 262 261 261 260 260 260 261 261 262 263 263 264 264 264 264 264 264 263 263 263 262 262 262
277 276 274 272 270 269 268 267 266 265 263 262 262 261 261 262 262 263 264 265 266 267 267 265 264 263 262 262 262 262 262 261 261 260 261 261 261 262 262 263 263 264 264 264 264 264 263 263 262 262 262 261
281 279 276 274 272 270 268 266 264 263 262 261 259 259 259 259 259 259 260 261 262 263 264 264 264 264 263 263 262 262 262 263 262 262 261 262 262 262 263 263 263 264 264 264 264 264 264 263 262 262 261 261
288 284 280 277 274 272 270 267 265 263 261 260 259 258 258 257 257 257 257 258 259 260 260 261 262 262 263 264 264 263 263 263 263 263 262 262 263 263 263 263 264 264 265 265 265 265 264 264 263 262 261 261
290 288 285 282 278 275 272 270 267 265 263 262 261 260 258 257 257 257 256 256 256 257 258 258 259 260 260 262 263 263 262 263 263 263 263 263 263 263 263 263 263 263 264 264 264 264 264 265 265 264 264 263
286 287 286 285 282 279 275 272 269 267 265 264 263 262 261 259 258 258 257 257 257 258 258 259 258 258 258 258 260 261 262 262 262 263 263 263 263 264 264 263 263 263 263 264 264 264 265 265 265 265 265 265
278 280 281 281 281 280 277 275 271 268 266 265 264 263 262 261 260 259 259 259 259 260 260 260 260 259 257 256 257 259 260 261 262 263 263 263 263 264 264 264 264 264 264 264 264 265 265 265 265 265 265 266
267 269 271 272 274 275 276 275 272 269 267 265 264 263 262 261 260 259 259 260 262 263 263 264 263 262 260 258 257 257 258 259 260 262 262 263 263 264 265 265 265 265 265 265 265 265 265 265 265 265 265 265
262 262 263 264 266 268 270 271 271 270 268 266 264 263 262 262 260 259 259 260 261 263 265 266 266 265 264 261 259 257 257 258 259 260 261 262 262 263 265 266 266 266 266 266 265 265 265 265 264 264 264 265
265 263 263 263 263 264 265 267 268 269 269 268 266 264 263 262 261 260 259 259 260 262 263 265 266 266 265 263 262 260 259 259 259 259 260 260 261 261 263 264 265 265 265 265 265 265 264 264 263 263 263 263
266 266 265 264 263 263 264 264 265 266 267 268 268 268 266 264 263 261 259 259 259 260 261 262 263 264 264 263 263 262 262 261 261 261 261 261 261 261 261 263 263 264 264 264 265 265 264 264 263 262 262 262
266 266 266 265 264 264 263 263 263 263 263 265 266 267 268 267 265 264 262 260 258 258 259 260 260 261 262 262 262 263 263 263 263 263 263 263 263 262 262 262 263 263 263 264 264 264 264 264 264 263 262 261
267 267 267 267 266 266 265 264 263 262 262 262 262 263 265 266 265 265 264 262 261 259 257 258 258 259 260 260 261 261 262 263 264 264 265 265 265 265 264 263 264 264 263 263 263 263 263 263 263 262 262 261
266 267 268 268 268 268 268 267 266 265 264 263 262 262 262 262 263 263 263 264 263 262 259 257 257 257 258 259 259 259 260 261 263 264 265 266 267 267 266 265 265 265 265 264 263 263 263 263 263 262 262 261
265 265 266 266 267 268 268 268 268 266 265 264 264 263 263 262 261 260 261 262 263 263 261 259 257 257 257 258 258 258 257 258 260 262 263 265 266 267 267 266 266 266 266 266 265 266 266 265 265 264 263 261
267 266 265 265 266 266 267 267 268 267 267 266 265 264 264 264 262 261 260 260 261 261 262 261 259 258 257 257 257 258 257 257 258 259 261 262 264 265 266 266 266 266 267 267 267 267 267 267 266 265 264 262
271 269 267 267 266 266 265 265 265 265 266 266 266 266 266 265 264 263 262 261 260 261 262 263 263 261 260 259 258 257 257 257 257 258 259 260 261 263 265 266 266 266 266 265 265 265 266 266 266 265 263 262
273 271 270 269 268 267 266 265 264 264 265 265 266 267 267 267 266 265 264 263 262 262 263 264 265 265 264 262 261 259 258 257 257 257 257 258 260 261 263 265 266 266 265 264 263 263 263 263 262 261 261 262
273 272 271 270 269 268 266 265 265 264 264 264 265 266 267 267 267 267 266 265 263 263 264 265 266 266 267 266 265 263 262 260 259 258 258 258 259 260 262 263 264 265 265 265 264 263 262 260 259 259 260 261
272 271 270 269 268 267 267 266 265 265 265 264 264 264 264 265 266 266 267 266 265 264 264 265 265 266 266 267 267 266 266 265 263 262 261 260 260 260 261 262 263 264 265 265 264 262 261 260 260 260 259 259
270 269 268 268 268 267 267 267 266 266 265 265 265 265 264 264 264 265 266 267 267 266 266 265 265 265 265 265 265 265 265 266 265 265 264 263 262 261 261 262 262 263 264 264 263 263 262 262 261 260 259 260
270 268 267 265 265 265 265 266 266 265 264 264 264 265 265 265 265 264 265 266 267 268 268 267 267 266 265 265 264 264 264 264 264 265 265 265 264 263 263 262 262 262 263 263 264 264 264 263 262 261 260 260
271 269 268 264 263 262 262 262 262 261 261 261 262 263 264 264 264 264 264 265 265 266 267 268 268 267 267 266 265 265 264 263 263 263 264 264 265 265 265 264 263 262 262 263 263 264 265 265 264 263 261 260
268 267 266 264 262 260 259 258 257 256 257 258 260 261 262 263 263 263 263 263 264 264 265 266 266 267 267 267 266 266 266 265 264 264 263 263 263 264 264 265 264 263 263 262 262 262 264 265 265 264 262 261
264 263 262 260 259 257 256 255 253 252 252 254 257 259 261 262 263 264 263 263 263 264 264 264 265 265 266 266 266 266 266 266 265 265 264 263 263 262 262 263 263 264 264 263 262 261 262 263 264 264 263 262
Height
5866 5866 5866 5866 5866 5865 5865 5865 5865 5865 5865 5865 5865 5865 5866 5866 5866 5866 5866 5867 5867 5867 5867 5867 5867 5867 5867 5868 5868 5868 5868 5868 5868 5868 5868 5868 5868 5868 5868 5869 5869 5869 5869 5869 5869 5869 5869 5869 5869 5868 5869 5869
5865 5864 5864 5864 5864 5864 5864 5864 5864 5864 5864 5864 5864 5864 5864 5864 5864 5864 5865 5865 5865 5865 5865 5865 5865 5866 5866 5866 5866 5866 5866 5866 5866 5866 5866 5866 5866 5866 5866 5867 5867 5867 5867 5867 5867 5867 5867 5867 5867 5867 5867 5867
5863 5863 5863 5863 5863 5863 5863 5863 5863 5863 5863 5863 5863 5863 5863 5862 5862 5862 5863 5863 5863 5863 5863 5863 5863 5864 5863 5863 5863 5864 5864 5864 5864 5864 5864 5864 5864 5864 5864 5864 5865 5865 5865 5865 5865 5865 5865 5865 5865 5865 5865 5865
5861 5861 5861 5861 5861 5861 5861 5861 5861 5861 5861 5861 5861 5861 5861 5861 5861 5861 5861 5861 5861 5861 5862 5861 5861 5861 5861 5861 5861 5861 5861 5862 5862 5862 5862 5862 5862 5862 5862 5862 5862 5862 5863 5863 5863 5863 5863 5863 5863 5863 5863 5863
5859 5859 5859 5859 5859 5859 5859 5859 5859 5859 5859 5859 5859 5859 5859 5859 5859 5859 5859 5859 5859 5859 5859 5859 5859 5859 5859 5859 5859 5859 5859 5859 5860 5860 5860 5860 5860 5860 5860 5860 5860 5860 5860 5860 5860 5860 5860 5860 5861 5861 5861 5861
5857 5857 5857 5857 5857 5857 5857 5857 5857 5857 5857 5857 5857 5857 5857 5857 5857 5857 5857 5857 5857 5857 5857 5857 5857 5857 5857 5856 5856 5856 5857 5857 5857 5857 5857 5857 5857 5857 5857 5857 5857 5857 5858 5858 5858 5858 5858 5858 5858 5858 5858 5858
5855 5855 5855 5855 5854 5854 5854 5854 5854 5855 5855 5855 5855 5855 5855 5855 5855 5855 5855 5855 5855 5855 5855 5855 5855 5854 5854 5854 5854 5854 5854 5854 5854 5854 5854 5854 5854 5854 5854 5854 5854 5854 5855 5855 5855 5855 5855 5855 5855 5856 5856 5856
5852 5852 5852 5852 5852 5852 5852 5851 5851 5852 5852 5852 5852 5852 5852 5853 5853 5853 5852 5852 5852 5852 5852 5852 5852 5852 5852 5852 5851 5851 5851 5851 5851 5851 5851 5851 5851 5851 5851 5851 5851 5851 5851 5852 5852 5852 5852 5852 5852 5853 5853 5853
5850 5850 5849 5849 5849 5849 5849 5849 5849 5849 5848 5848 5848 5849 5849 5850 5850 5849 5849 5849 5849 5849 5849 5849 5849 5849 5849 5849 5849 5849 5849 5848 5848 5848 5848 5848 5848 5848 5848 5849 5849 5849 5849 5849 5849 5849 5849 5849 5849 5849 5850 5850
5848 5847 5847 5847 5846 5846 5846 5846 5846 5846 5845 5845 5845 5845 5846 5846 5846 5846 5846 5846 5846 5845 5845 5846 5846 5846 5846 5846 5846 5846 5846 5846 5845 5845 5845 5845 5846 5845 5846 5846 5846 5846 5846 5846 5846 5846 5846 5846 5846 5846 5846 5846
5845 5845 5844 5844 5844 5843 5843 5843 5843 5843 5842 5842 5842 5842 5842 5842 5842 5842 5843 5842 5842 5842 5842 5842 5842 5843 5843 5843 5842 5842 5842 5842 5842 5842 5842 5842 5843 5842 5842 5843 5843 5843 5843 5843 5843 5843 5843 5843 5843 5843 5843 5843
5843 5842 5842 5841 5841 5841 5840 5840 5840 5840 5840 5840 5840 5839 5839 5839 5839 5839 5839 5839 5838 5838 5838 5838 5838 5839 5839 5839 5839 5838 5838 5838 5838 5838 5838 5839 5839 5839 5839 5839 5839 5840 5840 5840 5840 5840 5840 5840 5840 5840 5840 5840
5840 5840 5839 5839 5838 5837 5837 5837 5837 5836 5837 5837 5836 5836 5836 5836 5836 5836 5836 5836 5835 5835 5835 5834 5834 5834 5834 5835 5835 5834 5834 5834 5834 5834 5834 5835 5835 5835 5835 5836 5836 5836 5836 5836 5836 5836 5837 5837 5837 5837 5836 5837
5837 5837 5836 5835 5835 5834 5834 5834 5833 5833 5833 5833 5833 5833 5832 5832 5833 5833 5833 5832 5832 5831 5831 5830 5830 5830 5830 5830 5830 5830 5830 5830 5830 5830 5830 5831 5831 5831 5831 5831 5832 5833 5833 5833 5833 5833 5833 5833 5833 5833 5833 5833
5834 5833 5833 5832 5831 5831 5830 5830 5830 5829 5829 5829 5829 5829 5829 5829 5829 5829 5829 5829 5828 5828 5827 5827 5827 5826 5826 5826 5826 5826 5825 5825 5825 5826 5826 5826 5827 5827 5827 5827 5828 5829 5829 5829 5829 5829 5829 5829 5830 5830 5830 5829
5830 5830 5830 5829 5829 5828 5827 5826 5826 5826 5826 5825 5825 5825 5825 5825 5825 5825 5826 5826 5825 5824 5824 5823 5823 5823 5823 5822 5822 5821 5821 5821 5821 5821 5821 5821 5822 5823 5823 5823 5823 5824 5824 5824 5824 5825 5825 5825 5825 5826 5826 5826
5825 5826 5826 5826 5826 5825 5824 5823 5823 5822 5822 5822 5821 5821 5821 5821 5821 5821 5821 5822 5821 5821 5820 5819 5819 5819 5819 5818 5818 5818 5817 5817 5817 5816 5816 5817 5817 5818 5818 5818 5818 5819 5819 5819 5819 5820 5820 5820 5821 5821 5821 5822
5820 5821 5821 5822 5822 5822 5821 5820 5820 5819 5818 5818 5817 5817 5817 5817 5816 5816 5817 5817 5817 5817 5816 5815 5815 5815 5814 5814 5814 5814 5814 5813 5813 5812 5812 5812 5812 5813 5814 5813 5813 5813 5813 5813 5813 5814 5815 5815 5816 5816 5817 5817
5816 5816 5816 5817 5817 5817 5817 5817 5816 5816 5815 5814 5814 5813 5813 5813 5812 5812 5812 5812 5812 5812 5812 5811 5811 5810 5809 5809 5809 5810 5809 5809 5809 5808 5808 5808 5808 5808 5809 5809 5808 5808 5808 5808 5808 5808 5809 5810 5810 5811 5811 5812
5812 5812 5812 5812 5812 5812 5813 5812 5812 5812 5811 5811 5810 5810 5809 5808 5808 5807 5807 5807 5806 5806 5807 5806 5806 5806 5805 5804 5804 5805 5805 5805 5805 5804 5804 5804 5803 5804 5804 5804 5804 5804 5803 5803 5803 5803 5804 5805 5805 5805 5806 5806
5808 5808 5807 5807 5808 5808 5808 5808 5808 5807 5807 5807 5806 5806 5805 5805 5804 5803 5802 5802 5801 5801 5801 5801 5801 5800 5800 5799 5799 5799 5800 5800 5799 5799 5799 5799 5799 5798 5798 5799 5799 5799 5799 5799 5799 5799 5800 5800 5800 5800 5800 5800
5804 5804 5803 5803 5803 5803 5803 5803 5803 5802 5802 5802 5802 5801 5801 5800 5800 5799 5798 5798 5797 5796 5796 5796 5796 5795 5795 5794 5794 5794 5794 5794 5794 5794 5794 5794 5794 5793 5793 5793 5794 5794 5794 5794 5794 5795 5795 5795 5796 5796 5795 5795
5800 5800 5799 5798 5798 5798 5798 5798 5798 5797 5797 5797 5796 5796 5796 5796 5795 5795 5794 5794 5794 5793 5792 5792 5791 5791 5790 5790 5789 5789 5789 5789 5789 5789 5788 5788 5788 5788 5788 5788 5788 5789 5789 5788 5788 5789 5789 5790 5791 5790 5790 5789
5797 5796 5795 5794 5793 5793 5793 5793 5793 5792 5792 5792 5791 5791 5790 5790 5790 5790 5789 5789 5789 5789 5788 5788 5787 5786 5786 5785 5785 5784 5784 5784 5783 5783 5782 5782 5782 5782 5782 5782 5782 5782 5782 5782 5782 5783 5784 5784 5784 5784 5784 5785
5793 5792 5791 5790 5789 5789 5788 5788 5788 5787 5787 5787 5786 5786 5785 5785 5784 5784 5784 5784 5784 5784 5784 5783 5783 5782 5782 5781 5780 5780 5779 5779 5778 5778 5777 5777 5777 5776 5777 5776 5776 5776 5776 5776 5777 5778 5778 5777 5777 5778 5779 5780
5789 5788 5788 5787 5785 5784 5784 5784 5783 5783 5782 5782 5781 5781 5780 5779 5779 5779 5778 5778 5778 5778 5778 5778 5777 5777 5776 5776 5776 5775 5775 5774 5773 5773 5772 5772 5771 5771 5770 5770 5770 5769 5770 5770 5771 5771 5771 5771 5771 5772 5773 5774
5783 5783 5783 5782 5781 5780 5779 5779 5778 5778 5778 5777 5777 5776 5775 5774 5774 5773 5772 5772 5772 5772 5772 5772 5771 5771 5771 5770 5770 5770 5769 5769 5768 5767 5767 5766 5766 5765 5765 5765 5764 5764 5763 5763 5764 5764 5764 5765 5765 5766 5767 5768
5778 5777 5777 5776 5776 5775 5775 5774 5774 5773 5773 5772 5772 5771 5770 5769 5769 5768 5767 5767 5766 5765 5765 5765 5765 5765 5765 5764 5764 5764 5763 5763 5762 5761 5761 5760 5760 5759 5759 5759 5759 5759 5758 5757 5758 5758 5758 5758 5758 5760 5762 5762
5773 5772 5771 5770 5769 5769 5768 5768 5768 5767 5767 5767 5766 5766 5765 5764 5763 5763 5762 5761 5760 5760 5759 5759 5758 5758 5758 5757 5757 5757 5757 5757 5756 5755 5755 5754 5753 5753 5752 5752 5752 5752 5752 5752 5752 5752 5751 5752 5752 5754 5755 5755
5767 5766 5765 5764 5763 5762 5761 5761 5760 5760 5760 5760 5759 5759 5758 5758 5757 5757 5756 5755 5754 5754 5753 5752 5752 5751 5751 5750 5750 5750 5750 5750 5749 5749 5748 5748 5747 5747 5746 5745 5745 5746 5746 5746 5746 5745 5745 5745 5745 5746 5747 5747
5760 5759 5758 5757 5756 5755 5755 5754 5753 5753 5753 5752 5752 5751 5751 5751 5750 5750 5749 5748 5748 5747 5746 5746 5745 5744 5744 5743 5743 5743 5742 5742 5742 5742 5741 5741 5740 5740 5739 5738 5738 5739 5739 5739 5739 5739 5739 5739 5738 5738 5738 5739